EW1710 Weather Reports


time (UTC)temp
C
wind
direction
speed
KPH
gust
KPH
rain 1hr
cm
rain 24hr
cm
rain mn
cm
humidity
%
barometer
mb
20260508075234 7 137 0.0 1.6 0.00 0.00 0.00 75 1013.5
20260508074732 7 298 4.8 4.8 0.00 0.00 0.00 75 1013.7
20260508074229 7 326 4.8 4.8 0.00 0.00 0.00 74 1013.8
20260508073726 8 178 0.0 0.0 0.00 0.00 0.00 73 1013.9
20260508073224 8 162 3.2 3.2 0.00 0.00 0.00 72 1013.9
20260508072719 8 213 1.6 3.2 0.00 0.00 0.00 71 1013.7
20260508072217 8 57 1.6 1.6 0.00 0.00 0.00 70 1013.8
20260508071714 8 249 0.0 1.6 0.00 0.00 0.00 69 1014.0
20260508071212 8 262 1.6 1.6 0.00 0.00 0.00 68 1013.7
20260508070709 9 255 3.2 3.2 0.00 0.00 0.00 67 1013.8
20260508070208 9 295 8.0 9.7 0.00 0.00 0.00 66 1013.9
20260508065704 9 30 4.8 4.8 0.00 0.00 0.00 65 1013.8
20260508065202 9 205 4.8 9.7 0.00 0.00 0.00 64 1013.8
20260508064700 8 239 3.2 3.2 0.00 0.00 0.00 63 1013.8
20260508064158 8 260 1.6 1.6 0.00 0.00 0.00 63 1014.0
20260508063655 8 197 3.2 3.2 0.00 0.00 0.00 64 1013.9
20260508063153 8 230 1.6 1.6 0.00 0.00 0.00 63 1013.8
20260508062650 8 281 3.2 3.2 0.00 0.00 0.00 63 1013.8
20260508062147 8 233 1.6 3.2 0.00 0.00 0.00 63 1013.9
20260508061644 8 215 3.2 3.2 0.00 0.00 0.00 63 1013.8
20260508061141 8 132 0.0 0.0 0.00 0.00 0.00 65 1014.0
20260508060638 8 153 1.6 1.6 0.00 0.00 0.00 65 1013.8
20260508060135 8 143 0.0 0.0 0.00 0.00 0.00 65 1013.9
20260508055631 8 167 0.0 0.0 0.00 0.00 0.00 65 1013.9
20260508055128 8 185 0.0 0.0 0.00 0.00 0.00 65 1013.9
20260508054624 8 183 1.6 1.6 0.00 0.00 0.00 66 1013.9
20260508054122 8 162 0.0 0.0 0.00 0.00 0.00 66 1014.0
20260508053618 8 164 0.0 0.0 0.00 0.00 0.00 66 1014.2
20260508053116 8 149 0.0 0.0 0.00 0.00 0.00 66 1014.3
20260508052614 8 152 1.6 0.0 0.00 0.00 0.00 65 1014.4
20260508052111 8 168 0.0 0.0 0.00 0.00 0.00 65 1014.3
20260508051607 8 182 1.6 1.6 0.00 0.00 0.00 64 1014.2
20260508051102 8 188 0.0 0.0 0.00 0.00 0.00 64 1014.5
20260508050558 8 203 0.0 0.0 0.00 0.00 0.00 64 1014.4
20260508050056 8 212 0.0 0.0 0.00 0.00 0.00 65 1014.3
20260508045552 8 213 1.6 1.6 0.00 0.00 0.00 64 1014.3
20260508045050 8 60 0.0 0.0 0.00 0.00 0.00 63 1014.4
20260508044547 8 188 1.6 1.6 0.00 0.00 0.00 63 1014.7
20260508044043 8 131 0.0 0.0 0.00 0.00 0.00 63 1014.5
20260508043539 8 243 0.0 0.0 0.00 0.00 0.00 64 1014.3
20260508043037 8 349 0.0 0.0 0.00 0.00 0.00 64 1014.5
20260508042533 8 341 1.6 1.6 0.00 0.00 0.00 64 1014.5
20260508042031 8 233 0.0 0.0 0.00 0.00 0.00 63 1014.5
20260508041527 8 208 1.6 1.6 0.00 0.00 0.00 63 1014.4
20260508041024 8 215 3.2 1.6 0.00 0.00 0.00 62 1014.2
20260508040521 8 147 0.0 0.0 0.00 0.00 0.00 63 1014.3
20260508040019 8 150 0.0 0.0 0.00 0.00 0.00 63 1014.6
20260508035515 8 172 0.0 0.0 0.00 0.00 0.00 62 1014.5
20260508035012 8 141 3.2 3.2 0.00 0.00 0.00 62 1014.5
20260508034510 8 341 0.0 0.0 0.00 0.00 0.00 61 1014.5
20260508034006 8 200 0.0 0.0 0.00 0.00 0.00 61 1014.6
20260508033504 8 178 1.6 1.6 0.00 0.00 0.00 60 1014.7
20260508033001 8 235 4.8 4.8 0.00 0.00 0.00 60 1014.8
20260508032458 8 45 1.6 1.6 0.00 0.00 0.00 61 1014.7
20260508031955 7 6 1.6 1.6 0.00 0.00 0.00 64 1014.5
20260508031453 7 118 0.0 0.0 0.00 0.00 0.00 67 1014.4
20260508030948 6 199 0.0 0.0 0.00 0.00 0.00 68 1014.5
20260508030445 6 216 0.0 0.0 0.00 0.00 0.00 71 1014.4
20260508025942 5 185 0.0 0.0 0.00 0.00 0.00 76 1014.4
20260508025433 5 298 0.0 0.0 0.00 0.00 0.00 78 1014.4
20260508024930 5 304 0.0 0.0 0.00 0.00 0.00 78 1014.3
20260508024426 5 305 0.0 0.0 0.00 0.00 0.00 79 1014.4
20260508023923 5 305 0.0 0.0 0.00 0.00 0.00 79 1014.6
20260508023420 5 305 0.0 0.0 0.00 0.00 0.00 78 1014.5
20260508022917 5 305 0.0 0.0 0.00 0.00 0.00 78 1014.5
20260508022413 5 305 0.0 0.0 0.00 0.00 0.00 77 1014.3
20260508021910 5 305 0.0 0.0 0.00 0.00 0.00 76 1014.4
20260508021406 5 305 0.0 0.0 0.00 0.00 0.00 76 1014.3
20260508020902 5 305 0.0 0.0 0.00 0.00 0.00 77 1014.4
20260508020400 5 305 0.0 0.0 0.00 0.00 0.00 75 1014.3
20260508015857 5 305 0.0 0.0 0.00 0.00 0.00 75 1014.3
20260508015355 5 305 0.0 0.0 0.00 0.00 0.00 74 1014.2
20260508014851 5 305 0.0 0.0 0.00 0.00 0.00 76 1014.5
20260508014348 5 305 0.0 0.0 0.00 0.00 0.00 75 1014.2
20260508013843 6 305 0.0 0.0 0.00 0.00 0.00 74 1014.1
20260508013340 6 305 0.0 0.0 0.00 0.00 0.00 74 1014.2
20260508012837 6 305 0.0 0.0 0.00 0.00 0.00 73 1014.0
20260508012334 6 305 0.0 0.0 0.00 0.00 0.00 71 1014.1
20260508011832 6 305 0.0 0.0 0.00 0.00 0.00 69 1014.1
20260508011329 6 305 0.0 0.0 0.00 0.00 0.00 68 1013.8
20260508010821 6 305 0.0 0.0 0.00 0.00 0.00 67 1013.9
20260508010319 6 305 0.0 0.0 0.00 0.00 0.00 67 1014.1
20260508005816 7 305 0.0 0.0 0.00 0.00 0.00 67 1014.0
20260508005312 7 305 0.0 0.0 0.00 0.00 0.00 65 1014.0
20260508004808 7 305 0.0 0.0 0.00 0.00 0.00 65 1014.0
20260508004304 7 305 0.0 0.0 0.00 0.00 0.00 62 1014.1
20260508003801 8 305 0.0 0.0 0.00 0.00 0.00 61 1013.9
20260508003259 8 305 0.0 0.0 0.00 0.00 0.00 58 1013.7
20260508002755 9 305 0.0 0.0 0.00 0.00 0.00 53 1013.8
20260508002252 10 305 0.0 0.0 0.00 0.00 0.00 49 1013.9
20260508001748 10 308 1.6 1.6 0.00 0.00 0.00 48 1013.8
20260508001244 10 309 1.6 1.6 0.00 0.00 0.00 47 1013.8
20260508000741 10 311 1.6 1.6 0.00 0.00 0.00 44 1013.8
20260508000238 10 293 0.0 0.0 0.00 0.00 0.00 45 1013.6
20260507235734 11 327 1.6 3.2 0.00 0.00 0.00 43 1013.7
20260507235232 11 321 1.6 1.6 0.00 0.00 0.00 43 1013.7
20260507234728 11 329 0.0 0.0 0.00 0.00 0.00 45 1013.6
20260507234225 11 319 6.4 8.0 0.00 0.00 0.00 42 1013.5
20260507233721 11 290 4.8 8.0 0.00 0.00 0.00 42 1013.4
20260507233219 11 329 3.2 3.2 0.00 0.00 0.00 43 1013.5
20260507232716 11 299 6.4 8.0 0.00 0.00 0.00 41 1013.6
20260507232214 11 289 1.6 3.2 0.00 0.00 0.00 42 1013.6
20260507231710 12 355 6.4 8.0 0.00 0.00 0.00 41 1013.4
20260507231207 12 296 4.8 4.8 0.00 0.00 0.00 42 1013.4
20260507230703 12 302 3.2 3.2 0.00 0.00 0.00 39 1013.8
20260507230201 12 226 4.8 8.0 0.00 0.00 0.00 38 1013.7
20260507225700 12 11 4.8 4.8 0.00 0.00 0.00 38 1013.6
20260507225157 12 341 6.4 9.7 0.00 0.00 0.00 38 1013.8
20260507224653 12 300 6.4 8.0 0.00 0.00 0.00 38 1014.0
20260507224149 12 331 9.7 11.3 0.00 0.00 0.00 37 1013.8
20260507223645 12 330 4.8 4.8 0.00 0.00 0.00 37 1013.7
20260507223143 13 302 6.4 8.0 0.00 0.00 0.00 36 1013.6
20260507222639 13 8 6.4 9.7 0.00 0.00 0.00 36 1013.6
20260507222136 13 311 8.0 12.9 0.00 0.00 0.00 35 1013.6
20260507221632 13 316 6.4 8.0 0.00 0.00 0.00 39 1013.6
20260507221129 13 298 8.0 12.9 0.00 0.00 0.00 37 1013.8
20260507220626 13 315 8.0 11.3 0.00 0.00 0.00 37 1013.8
20260507220124 13 345 3.2 4.8 0.00 0.00 0.00 38 1013.7
20260507215619 13 321 8.0 9.7 0.00 0.00 0.00 37 1013.5
20260507215117 12 358 3.2 3.2 0.00 0.00 0.00 41 1013.7
20260507214614 12 289 4.8 8.0 0.00 0.00 0.00 41 1013.5
20260507214110 13 7 11.3 14.5 0.00 0.00 0.00 38 1013.5
20260507213607 12 297 8.0 9.7 0.00 0.00 0.00 42 1013.7
20260507213104 12 356 3.2 3.2 0.00 0.00 0.00 49 1013.5
20260507212600 12 308 3.2 4.8 0.00 0.00 0.00 46 1013.4
20260507212057 13 343 9.7 12.9 0.00 0.00 0.00 42 1013.6
20260507211554 13 1 11.3 17.7 0.00 0.00 0.00 42 1013.3
20260507211050 13 342 4.8 3.2 0.00 0.00 0.00 48 1013.4
20260507210547 13 358 4.8 4.8 0.00 0.00 0.00 47 1013.4
20260507210044 12 321 3.2 3.2 0.00 0.00 0.00 54 1013.2
20260507205541 11 357 6.4 4.8 0.00 0.00 0.00 52 1013.2
20260507205037 12 353 3.2 4.8 0.00 0.00 0.00 49 1012.9
20260507204533 12 312 4.8 4.8 0.00 0.00 0.00 50 1013.3
20260507204031 12 301 8.0 9.7 0.00 0.00 0.00 49 1013.0
20260507203529 11 293 3.2 4.8 0.00 0.00 0.00 51 1013.0
20260507203026 12 314 4.8 4.8 0.00 0.00 0.00 51 1013.0
20260507202521 12 310 8.0 12.9 0.00 0.00 0.00 47 1012.7
20260507202018 12 248 6.4 9.7 0.00 0.00 0.00 44 1012.9
20260507201513 13 199 1.6 3.2 0.00 0.00 0.00 44 1013.2
20260507201010 13 314 8.0 9.7 0.00 0.00 0.00 45 1012.7
20260507200506 13 215 6.4 9.7 0.00 0.00 0.00 41 1012.7
20260507200002 13 246 4.8 8.0 0.00 0.00 0.00 46 1012.8
20260507195459 12 313 8.0 11.3 0.00 0.00 0.00 43 1012.8
20260507194956 13 29 6.4 8.0 0.00 0.00 0.00 44 1012.7
20260507194453 13 314 9.7 11.3 0.00 0.00 0.00 43 1012.8
20260507193949 13 5 4.8 8.0 0.00 0.00 0.00 44 1012.9
20260507193446 13 347 11.3 14.5 0.00 0.00 0.00 39 1013.0
20260507192942 15 349 3.2 4.8 0.00 0.00 0.00 42 1013.0
20260507192439 14 336 3.2 8.0 0.00 0.00 0.00 41 1013.0
20260507191936 13 289 11.3 16.1 0.00 0.00 0.00 41 1012.9
20260507191432 13 320 16.1 16.1 0.00 0.00 0.00 40 1013.0
20260507190928 13 322 4.8 4.8 0.00 0.00 0.00 42 1013.4
20260507190426 14 325 11.3 12.9 0.00 0.00 0.00 38 1013.2
20260507185925 13 8 3.2 4.8 0.00 0.00 0.00 43 1013.2
20260507185422 13 327 4.8 4.8 0.00 0.00 0.00 44 1013.0
20260507184919 13 312 8.0 11.3 0.00 0.00 0.00 44 1013.3
20260507184417 13 335 4.8 9.7 0.00 0.00 0.00 43 1013.3
20260507183914 13 240 4.8 4.8 0.00 0.00 0.00 43 1013.3
20260507183411 13 325 8.0 9.7 0.00 0.00 0.00 41 1013.2
20260507182908 13 18 9.7 11.3 0.00 0.00 0.00 40 1013.2
20260507182403 13 287 4.8 4.8 0.00 0.00 0.00 43 1013.4
20260507181900 12 299 8.0 9.7 0.00 0.00 0.00 45 1013.4
20260507181356 12 324 4.8 8.0 0.00 0.00 0.00 50 1013.4
20260507180853 12 314 3.2 3.2 0.00 0.00 0.00 46 1013.3
20260507180350 12 326 4.8 4.8 0.00 0.00 0.00 47 1013.4
20260507175846 12 320 6.4 8.0 0.00 0.00 0.00 51 1013.4
20260507175343 12 299 4.8 4.8 0.00 0.00 0.00 48 1013.5
20260507174840 13 341 4.8 4.8 0.00 0.00 0.00 46 1013.5
20260507174338 13 330 6.4 8.0 0.00 0.00 0.00 46 1013.5
20260507173835 12 347 1.6 3.2 0.00 0.00 0.00 51 1013.3
20260507173332 13 296 9.7 11.3 0.00 0.00 0.00 43 1013.5
20260507172828 12 233 1.6 1.6 0.00 0.00 0.00 46 1013.6
20260507172325 12 289 1.6 1.6 0.00 0.00 0.00 48 1013.7
20260507171821 12 311 3.2 3.2 0.00 0.00 0.00 47 1013.6
20260507171318 13 312 6.4 9.7 0.00 0.00 0.00 45 1013.6
20260507170815 12 293 8.0 12.9 0.00 0.00 0.00 49 1013.7
20260507170311 12 320 8.0 11.3 0.00 0.00 0.00 47 1013.6
20260507165807 13 311 4.8 4.8 0.00 0.00 0.00 45 1013.5
20260507165306 13 359 8.0 9.7 0.00 0.00 0.00 43 1013.6
20260507164759 13 310 8.0 9.7 0.00 0.00 0.00 47 1013.5
20260507164257 13 182 0.0 1.6 0.00 0.00 0.00 44 1013.5
20260507163754 13 215 4.8 4.8 0.00 0.00 0.00 47 1013.5
20260507163252 14 312 11.3 14.5 0.00 0.00 0.00 44 1013.7
20260507162747 14 344 0.0 1.6 0.00 0.00 0.00 46 1013.6
20260507162243 14 332 4.8 4.8 0.00 0.00 0.00 45 1013.6
20260507161741 13 352 1.6 1.6 0.00 0.00 0.00 40 1013.7
20260507161237 13 275 1.6 1.6 0.00 0.00 0.00 44 1013.6
20260507160733 13 25 0.0 1.6 0.00 0.00 0.00 42 1013.6
20260507160229 13 14 3.2 8.0 0.00 0.00 0.00 43 1013.6
20260507155725 13 306 3.2 3.2 0.00 0.00 0.00 46 1013.7
20260507155222 13 293 3.2 3.2 0.00 0.00 0.00 43 1013.7
20260507154719 13 29 0.0 0.0 0.00 0.00 0.00 42 1013.8
20260507154216 12 287 4.8 8.0 0.00 0.00 0.00 47 1013.8
20260507153712 12 321 4.8 8.0 0.00 0.00 0.00 45 1013.5
20260507153209 12 324 4.8 4.8 0.00 0.00 0.00 44 1013.8
20260507152706 13 317 6.4 8.0 0.00 0.00 0.00 46 1013.8
20260507152201 13 343 6.4 8.0 0.00 0.00 0.00 49 1013.9
20260507151658 14 319 4.8 9.7 0.00 0.00 0.00 44 1013.9
20260507151154 13 194 4.8 4.8 0.00 0.00 0.00 49 1013.9
20260507150651 12 141 4.8 8.0 0.00 0.00 0.00 48 1013.9
20260507150148 12 298 1.6 3.2 0.00 0.00 0.00 48 1013.8
20260507145644 12 325 9.7 9.7 0.00 0.00 0.00 44 1013.9
20260507145141 13 332 6.4 8.0 0.00 0.00 0.00 45 1013.8
20260507144637 13 26 1.6 1.6 0.00 0.00 0.00 41 1013.8
20260507144136 12 36 0.0 1.6 0.00 0.00 0.00 47 1013.8
20260507143632 13 323 4.8 9.7 0.00 0.00 0.00 41 1013.7
20260507143129 13 83 1.6 1.6 0.00 0.00 0.00 43 1013.8
20260507142624 13 308 4.8 4.8 0.00 0.00 0.00 44 1013.7
20260507142122 12 53 0.0 1.6 0.00 0.00 0.00 44 1013.7
20260507141618 12 338 4.8 8.0 0.00 0.00 0.00 46 1014.0
20260507141115 12 250 4.8 3.2 0.00 0.00 0.00 45 1014.0
20260507140611 12 150 0.0 1.6 0.00 0.00 0.00 50 1014.0
20260507140109 12 27 3.2 3.2 0.00 0.00 0.00 47 1013.9
20260507135606 12 300 1.6 3.2 0.00 0.00 0.00 46 1014.2
20260507135103 12 338 8.0 11.3 0.00 0.00 0.00 47 1014.1
20260507134559 12 16 3.2 4.8 0.00 0.00 0.00 53 1014.1
20260507134055 11 197 1.6 1.6 0.00 0.00 0.00 52 1014.4
20260507133551 11 267 3.2 3.2 0.00 0.00 0.00 59 1014.3
20260507133049 11 4 6.4 8.0 0.00 0.00 0.00 53 1014.3
20260507132546 11 33 1.6 1.6 0.00 0.00 0.00 58 1014.4
20260507132042 11 17 3.2 3.2 0.00 0.00 0.00 55 1014.3
20260507131539 11 41 3.2 4.8 0.00 0.00 0.00 56 1014.4
20260507131037 10 300 1.6 3.2 0.00 0.00 0.00 59 1014.5
20260507130533 10 275 3.2 3.2 0.00 0.00 0.00 61 1014.5
20260507130032 10 353 4.8 4.8 0.00 0.00 0.00 62 1014.2
20260507125530 10 169 3.2 3.2 0.00 0.00 0.00 65 1014.5
20260507125027 10 308 6.4 8.0 0.00 0.00 0.00 62 1014.5
20260507124523 9 309 3.2 3.2 0.00 0.00 0.00 66 1014.4
20260507124021 9 318 3.2 3.2 0.00 0.00 0.00 66 1014.4
20260507123519 9 336 1.6 1.6 0.00 0.00 0.00 68 1014.6
20260507123015 9 240 0.0 0.0 0.00 0.00 0.00 66 1014.4
20260507122510 8 28 1.6 1.6 0.00 0.00 0.00 69 1014.5
20260507122007 8 329 3.2 3.2 0.00 0.00 0.00 69 1014.3
20260507121502 8 313 4.8 4.8 0.00 0.00 0.00 68 1014.1
20260507120958 8 16 1.6 1.6 0.00 0.00 0.00 69 1014.0
20260507120455 8 353 4.8 4.8 0.00 0.00 0.00 69 1014.2
20260507115952 8 259 1.6 1.6 0.00 0.00 0.00 69 1014.1
20260507115448 8 68 4.8 8.0 0.00 0.00 0.00 68 1014.3
20260507114944 8 320 3.2 1.6 0.00 0.00 0.00 69 1014.2
20260507114440 8 258 3.2 3.2 0.00 0.00 0.00 70 1014.3
20260507113938 7 12 3.2 3.2 0.00 0.00 0.00 71 1014.2
20260507113434 7 7 3.2 3.2 0.00 0.00 0.00 72 1014.4
20260507112932 7 282 3.2 3.2 0.00 0.00 0.00 72 1014.3
20260507112429 7 124 0.0 0.0 0.00 0.00 0.00 73 1014.1
20260507111926 6 34 1.6 1.6 0.00 0.00 0.00 74 1014.5
20260507111423 6 160 0.0 0.0 0.00 0.00 0.00 74 1014.0
20260507110920 6 300 1.6 1.6 0.00 0.00 0.00 75 1013.8
20260507110416 6 299 1.6 1.6 0.00 0.00 0.00 77 1013.9
20260507105913 5 207 0.0 0.0 0.00 0.00 0.00 77 1014.0
20260507105409 5 114 0.0 0.0 0.00 0.00 0.00 78 1013.8
20260507104906 5 191 0.0 1.6 0.00 0.00 0.00 78 1014.1
20260507104403 5 153 0.0 0.0 0.00 0.00 0.00 79 1013.9
20260507103859 5 160 0.0 0.0 0.00 0.00 0.00 79 1013.7
20260507103356 5 198 0.0 0.0 0.00 0.00 0.00 78 1013.8
20260507102852 5 240 1.6 1.6 0.00 0.00 0.00 78 1013.8
20260507102348 5 166 0.0 0.0 0.00 0.00 0.00 78 1013.5
20260507101845 5 167 1.6 1.6 0.00 0.00 0.00 78 1013.6
20260507101345 5 317 0.0 0.0 0.00 0.00 0.00 77 1013.8
20260507100842 6 296 1.6 1.6 0.00 0.00 0.00 77 1013.7
20260507100340 6 279 0.0 0.0 0.00 0.00 0.00 76 1013.6
20260507095838 6 219 0.0 0.0 0.00 0.00 0.00 76 1013.7
20260507095334 6 277 0.0 0.0 0.00 0.00 0.00 76 1013.8
20260507094832 6 354 1.6 1.6 0.00 0.00 0.00 76 1013.8
20260507094328 6 218 1.6 1.6 0.00 0.00 0.00 76 1013.8
20260507093825 6 168 0.0 0.0 0.00 0.00 0.00 78 1013.9
20260507093324 6 213 0.0 0.0 0.00 0.00 0.00 77 1013.8
20260507092821 6 157 0.0 1.6 0.00 0.00 0.00 78 1013.6
20260507092318 6 283 0.0 0.0 0.00 0.00 0.00 80 1013.7
20260507091814 5 256 3.2 3.2 0.00 0.00 0.00 86 1013.8
20260507091310 5 125 0.0 0.0 0.00 0.00 0.00 92 1014.0
20260507090805 4 67 0.0 0.0 0.00 0.00 0.00 93 1013.8
20260507090302 4 75 0.0 0.0 0.00 0.00 0.00 94 1013.9
20260507085759 4 124 0.0 0.0 0.00 0.00 0.00 94 1013.9
20260507085256 3 121 0.0 1.6 0.00 0.00 0.00 95 1014.0
20260507084753 3 88 0.0 0.0 0.00 0.00 0.00 95 1014.1
20260507084249 3 91 0.0 0.0 0.00 0.00 0.00 95 1013.9
20260507083747 4 95 0.0 0.0 0.00 0.00 0.00 95 1014.2
20260507083244 3 39 0.0 1.6 0.00 0.00 0.00 95 1014.0
20260507082740 3 200 0.0 0.0 0.00 0.00 0.00 96 1014.0
20260507082235 3 118 0.0 0.0 0.00 0.00 0.00 96 1014.0
20260507081732 3 73 0.0 0.0 0.00 0.00 0.00 96 1014.1
20260507081228 3 73 0.0 0.0 0.00 0.00 0.00 95 1014.2
20260507080725 3 72 0.0 0.0 0.00 0.00 0.00 95 1014.2
20260507080221 3 72 0.0 0.0 0.00 0.00 0.00 95 1014.0
20260507075717 2 72 0.0 0.0 0.00 0.00 0.00 95 1014.1